Showing default

FORMOSAT 3E, 29051

Orbit data source: Space-Track

FORMOSAT 3E, 29051 is a payload satellite owned by NSPO (TW) in LEO that was launched on Sat, 15 Apr 2006 UTC via an MINOTAUR I launch vehicle from the Air Force Western Test Range (AFWTR). Payload-class satellites include a variety of spacecraft equipped with specific instruments for various scientific and technological missions. These include communications satellites like Starlink; space stations such as the ISS; scientific satellites like the Hubble; Earth observation satellites from companies like Planet Labs, Umbra, and HawkEye 360; GPS; miniature CubeSats for education and research; and military/defense satellites.

Loading next visibility...
Identifier
29051, 2006-011E
Orbit
LEO
Country
Flag of TWTW / TWN
Related business
Manufacturer
OSC
Mission
Non-operational Civil Science
Bus & Motor
MICROSTAR, Unknown motor
Mass
62 kg wet, 56 kg dry
Launch date (UTC)
2006-04-15 (20 years ago)
Launch vehicle
MINOTAUR I
Launch site
Air Force Western Test Range (AFWTR)
Object type
Payload
Rocket body
Debris
Shape & HBR
Cyl + 2 Pan, 2.1 m
Radar Cross Section
1.446 m², Medium (>0.1 m² and < 1m²)

Expand to show TLE details & history
Last TLE update: 2 days ago

TLE from 2 days ago
0 FORMOSAT 3E
1 29051U 06011E   26171.39103977  .00000264  00000-0  11213-3 0  9994
2 29051  72.0045 294.8888 0064357  84.8737 275.9742 14.31541450 55729
Epoch: 2026-06-20T09:23Z
TLE epoch observation values (Epoch: 2026-06-20T09:23:05.836Z)
Latitude
-0°
Longitude
-114.49186°
Altitude
784.561 km
Speed
7.464 km/s
True Right ascension
19h 39m 33s
True Declination
0° 00' 00"
Sunlit
Object was in full shadow at epoch
Visualization orbit readout
Latitude
Unknown
Longitude
Unknown
Altitude
Unknown
Speed
Unknown
Apparent Right ascension
Unknown
Apparent Declination
Unknown
Sunlit
N/A
Visualization observer readout
Local Sidereal Time
23:09:04
Azimuth
Unknown
Elevation
Unknown
Doppler factor
Unknown
Orbital elements
Apogee altitude
830.49 km
Perigee altitude
738.298 km
Semi-major axis
7,162.531 km
Eccentricity
0.00644
Inclination
72.0045°
RAAN
294.8888°
Arg. of periapsis
84.8737°
True anomaly
275.24013°
Mean anomaly
275.9742°
Eccentric anomaly
275.60723°
Mean motion
3.5805 °/min
Orbital period
100.54 mins
BSTAR
0.00011213
Loading maneuver chart data...
Computing Atmospheric mass density...
Loading historical data...
Loading historical data...
Loading historical data...
Loading historical data...
Loading historical data...
Loading historical data...
Loading historical data...

Documentation

Showing up to 5 results
|